DW0307 Weather Reports


time (UTC)temp
C
wind
direction
speed
KPH
gust
KPH
rain 1hr
cm
rain 24hr
cm
rain mn
cm
humidity
%
barometer
mb
20260503071551 16 205 3.2 11.3 0.00 0.00 0.00 47 1021.9
20260503054549 10 146 0.0 3.2 0.00 0.00 0.00 66 1021.9
20260503053048 9 146 0.0 4.8 0.00 0.00 0.00 70 1022.0
20260503051552 7 0 3.2 8.0 0.00 0.00 0.00 75 1022.0
20260503050046 6 160 1.6 6.4 0.00 0.00 0.00 83 1021.9
20260503044545 2 0 0.0 3.2 0.00 0.00 0.00 87 1021.9
20260503043050 0 0 1.6 3.2 0.00 0.00 0.00 87 1022.0
20260503041604 -1 0 0.0 1.6 0.00 0.00 0.00 86 1022.1
20260503040055 -1 0 0.0 0.0 0.00 0.00 0.00 86 1022.1
20260503034604 -1 0 0.0 3.2 0.00 0.00 0.00 85 1022.0
20260503033049 -1 0 0.0 3.2 0.00 0.00 0.00 85 1021.9
20260503031545 -1 0 0.0 3.2 0.00 0.00 0.00 85 1021.9
20260503030052 -1 287 1.6 3.2 0.00 0.00 0.00 85 1021.9
20260503024553 -1 287 1.6 4.8 0.00 0.00 0.00 84 1021.8
20260503023047 -1 288 1.6 3.2 0.00 0.00 0.00 83 1021.8
20260503021547 0 0 0.0 3.2 0.00 0.00 0.00 84 1021.8
20260503020046 0 0 0.0 3.2 0.00 0.00 0.00 83 1021.8
20260503014549 0 287 1.6 3.2 0.00 0.00 0.00 83 1021.8
20260503013051 0 288 1.6 3.2 0.00 0.00 0.00 83 1021.9
20260503011540 0 0 0.0 0.0 0.00 0.00 0.00 82 1021.8
20260503010048 0 0 0.0 1.6 0.00 0.00 0.00 81 1021.9
20260503004546 1 0 0.0 1.6 0.00 0.00 0.00 81 1021.8
20260503003046 1 0 0.0 0.0 0.00 0.00 0.00 81 1021.9
20260503001542 1 0 0.0 0.0 0.00 0.00 0.00 82 1021.8
20260503000041 1 0 0.0 4.8 0.00 0.00 0.00 82 1022.0
20260502234545 1 288 3.2 4.8 0.00 0.00 0.00 82 1022.0
20260502233045 1 0 0.0 3.2 0.00 0.00 0.00 82 1022.1
20260502231552 1 0 0.0 0.0 0.00 0.00 0.00 82 1022.2
20260502230044 1 0 0.0 3.2 0.00 0.00 0.00 81 1022.4
20260502224543 1 304 0.0 4.8 0.00 0.00 0.00 80 1022.5
20260502223049 1 0 0.0 3.2 0.00 0.00 0.00 80 1022.5
20260502221546 1 0 0.0 4.8 0.00 0.00 0.00 79 1022.5
20260502214544 2 304 4.8 6.4 0.00 0.00 0.00 77 1022.6
20260502213045 3 299 3.2 8.0 0.00 0.00 0.00 77 1022.6
20260502211551 3 292 3.2 9.7 0.00 0.00 0.00 76 1022.6
20260502210056 4 214 3.2 6.4 0.00 0.00 0.00 73 1022.6
20260502204547 5 150 0.0 4.8 0.00 0.00 0.00 73 1022.4
20260502203044 5 108 3.2 14.5 0.00 0.00 0.00 76 1022.3
20260502201546 3 343 3.2 6.4 0.00 0.00 0.00 75 1022.5
20260502200101 5 304 4.8 8.0 0.00 0.00 0.00 74 1022.4
20260502194559 5 286 3.2 6.4 0.00 0.00 0.00 72 1022.4
20260502193051 5 279 3.2 6.4 0.00 0.00 0.00 70 1022.4
20260502191550 7 0 0.0 3.2 0.00 0.00 0.00 60 1022.4
20260502190058 9 0 1.6 4.8 0.00 0.00 0.00 61 1022.1
20260502184554 9 0 0.0 4.8 0.00 0.00 0.00 61 1021.9
20260502183050 10 279 3.2 4.8 0.00 0.00 0.00 57 1021.8
20260502181548 12 279 1.6 9.7 0.00 0.00 0.00 51 1021.7
20260502180109 13 42 8.0 17.7 0.00 0.00 0.00 49 1021.3
20260502163053 17 52 17.7 32.2 0.00 0.00 0.00 39 1020.9
20260502161554 18 70 16.1 27.4 0.00 0.00 0.00 36 1020.9
20260502151558 18 74 20.9 32.2 0.00 0.00 0.00 35 1021.1
20260502123058 18 46 24.1 38.6 0.00 0.00 0.00 35 1022.2
20260502121603 19 59 19.3 32.2 0.00 0.00 0.00 38 1022.5
20260502114553 18 59 19.3 35.4 0.00 0.00 0.00 38 1022.8
20260502113057 18 92 22.5 37.0 0.00 0.00 0.00 40 1022.9
20260502111559 18 53 20.9 37.0 0.00 0.00 0.00 42 1023.0
20260502110055 18 37 19.3 37.0 0.00 0.00 0.00 43 1023.2
20260502104554 18 82 20.9 38.6 0.00 0.00 0.00 44 1023.2
20260502103105 18 77 17.7 35.4 0.00 0.00 0.00 44 1023.3
20260502101606 17 58 19.3 40.2 0.00 0.00 0.00 47 1023.4
20260502100110 17 17 19.3 38.6 0.00 0.00 0.00 47 1023.5
20260502080105 15 276 4.8 14.5 0.00 0.00 0.00 57 1024.6